owner,sensor,date,latitude,longitude,sea_surface_height_above_sea_level,qcFlag 
TCOON,ioos:station:TCOON:003:1,2017-01-01T00:18:00Z,26.8015,-97.4706,1.276,1111122 
TCOON,ioos:station:TCOON:003:1,2017-01-01T01:18:00Z,26.8015,-97.4706,1.282,1111122 
TCOON,ioos:station:TCOON:003:1,2017-01-01T02:18:00Z,26.8015,-97.4706,1.282,1111122 
TCOON,ioos:station:TCOON:003:1,2017-01-01T03:18:00Z,26.8015,-97.4706,1.303,1111122 
TCOON,ioos:station:TCOON:003:1,2017-01-01T04:30:00Z,26.8015,-97.4706,1.306,1111122 
TCOON,ioos:station:TCOON:003:1,2017-01-01T05:24:00Z,26.8015,-97.4706,1.304,1111122 
TCOON,ioos:station:TCOON:003:1,2017-01-01T06:18:00Z,26.8015,-97.4706,1.303,1111122 
TCOON,ioos:station:TCOON:003:1,2017-01-01T07:18:00Z,26.8015,-97.4706,1.305,1111122 
TCOON,ioos:station:TCOON:003:1,2017-01-01T08:18:00Z,26.8015,-97.4706,1.306,1111122 
TCOON,ioos:station:TCOON:003:1,2017-01-01T09:24:00Z,26.8015,-97.4706,1.304,1111122 
TCOON,ioos:station:TCOON:003:1,2017-01-01T10:18:00Z,26.8015,-97.4706,1.307,1111122 
TCOON,ioos:station:TCOON:003:1,2017-01-01T11:18:00Z,26.8015,-97.4706,1.315,1111122 
TCOON,ioos:station:TCOON:003:1,2017-01-01T12:18:00Z,26.8015,-97.4706,1.322,1111122 
TCOON,ioos:station:TCOON:003:1,2017-01-01T13:18:00Z,26.8015,-97.4706,1.329,1111122 
TCOON,ioos:station:TCOON:003:1,2017-01-01T14:18:00Z,26.8015,-97.4706,1.337,1111122 
TCOON,ioos:station:TCOON:003:1,2017-01-01T15:18:00Z,26.8015,-97.4706,1.36,1111122 
TCOON,ioos:station:TCOON:003:1,2017-01-01T16:18:00Z,26.8015,-97.4706,1.375,1111122 
TCOON,ioos:station:TCOON:003:1,2017-01-01T17:18:00Z,26.8015,-97.4706,1.359,1111122 
TCOON,ioos:station:TCOON:003:1,2017-01-01T18:24:00Z,26.8015,-97.4706,1.346,1111122 
TCOON,ioos:station:TCOON:003:1,2017-01-01T19:18:00Z,26.8015,-97.4706,1.319,1111122 
TCOON,ioos:station:TCOON:003:1,2017-01-01T20:18:00Z,26.8015,-97.4706,1.314,1111122 
TCOON,ioos:station:TCOON:003:1,2017-01-01T21:18:00Z,26.8015,-97.4706,1.331,1111122 
TCOON,ioos:station:TCOON:003:1,2017-01-01T22:18:00Z,26.8015,-97.4706,1.339,1111122 
TCOON,ioos:station:TCOON:003:1,2017-01-02T00:18:00Z,26.8015,-97.4706,1.356,1111122 
TCOON,ioos:station:TCOON:003:1,2017-01-02T01:18:00Z,26.8015,-97.4706,1.365,1111122 
TCOON,ioos:station:TCOON:003:1,2017-01-02T02:18:00Z,26.8015,-97.4706,1.375,1111122 
TCOON,ioos:station:TCOON:003:1,2017-01-02T03:18:00Z,26.8015,-97.4706,1.378,1111122 
TCOON,ioos:station:TCOON:003:1,2017-01-02T04:18:00Z,26.8015,-97.4706,1.383,1111122 
TCOON,ioos:station:TCOON:003:1,2017-01-02T05:18:00Z,26.8015,-97.4706,1.384,1111122 
TCOON,ioos:station:TCOON:003:1,2017-01-02T06:18:00Z,26.8015,-97.4706,1.39,1111122 
TCOON,ioos:station:TCOON:003:1,2017-01-02T07:18:00Z,26.8015,-97.4706,1.399,1111122 
TCOON,ioos:station:TCOON:003:1,2017-01-02T08:18:00Z,26.8015,-97.4706,1.401,1111122 
TCOON,ioos:station:TCOON:003:1,2017-01-02T09:18:00Z,26.8015,-97.4706,1.397,1111122 
TCOON,ioos:station:TCOON:003:1,2017-01-02T10:18:00Z,26.8015,-97.4706,1.382,1111122 
TCOON,ioos:station:TCOON:003:1,2017-01-02T11:18:00Z,26.8015,-97.4706,1.37,1111122 
TCOON,ioos:station:TCOON:003:1,2017-01-02T12:18:00Z,26.8015,-97.4706,1.36,1111122 
TCOON,ioos:station:TCOON:003:1,2017-01-02T13:24:00Z,26.8015,-97.4706,1.357,1111122 
TCOON,ioos:station:TCOON:003:1,2017-01-02T14:24:00Z,26.8015,-97.4706,1.367,1111122 
TCOON,ioos:station:TCOON:003:1,2017-01-02T15:18:00Z,26.8015,-97.4706,1.367,1111122 
TCOON,ioos:station:TCOON:003:1,2017-01-02T16:18:00Z,26.8015,-97.4706,1.343,1111122 
TCOON,ioos:station:TCOON:003:1,2017-01-02T17:18:00Z,26.8015,-97.4706,1.312,1111122 
TCOON,ioos:station:TCOON:003:1,2017-01-02T18:18:00Z,26.8015,-97.4706,1.294,1111122 
TCOON,ioos:station:TCOON:003:1,2017-01-02T19:18:00Z,26.8015,-97.4706,1.274,1111122 
TCOON,ioos:station:TCOON:003:1,2017-01-02T20:18:00Z,26.8015,-97.4706,1.286,1111122 
TCOON,ioos:station:TCOON:003:1,2017-01-02T21:18:00Z,26.8015,-97.4706,1.312,1111122 
TCOON,ioos:station:TCOON:003:1,2017-01-02T22:18:00Z,26.8015,-97.4706,1.334,1111122 
TCOON,ioos:station:TCOON:003:1,2017-01-02T23:18:00Z,26.8015,-97.4706,1.333,1111122 
TCOON,ioos:station:TCOON:003:1,2017-01-03T00:18:00Z,26.8015,-97.4706,1.335,1111122 
TCOON,ioos:station:TCOON:003:1,2017-01-03T01:18:00Z,26.8015,-97.4706,1.324,1111122 
TCOON,ioos:station:TCOON:003:1,2017-01-03T02:18:00Z,26.8015,-97.4706,1.332,1111122 
TCOON,ioos:station:TCOON:003:1,2017-01-03T03:18:00Z,26.8015,-97.4706,1.324,1111122 
TCOON,ioos:station:TCOON:003:1,2017-01-03T04:18:00Z,26.8015,-97.4706,1.32,1111122 
TCOON,ioos:station:TCOON:003:1,2017-01-03T05:18:00Z,26.8015,-97.4706,1.311,1111122 
TCOON,ioos:station:TCOON:003:1,2017-01-03T06:24:00Z,26.8015,-97.4706,1.3,1111122 
TCOON,ioos:station:TCOON:003:1,2017-01-03T07:24:00Z,26.8015,-97.4706,1.292,1111122 
TCOON,ioos:station:TCOON:003:1,2017-01-03T08:18:00Z,26.8015,-97.4706,1.29,1111122 
TCOON,ioos:station:TCOON:003:1,2017-01-03T09:18:00Z,26.8015,-97.4706,1.289,1111122 
TCOON,ioos:station:TCOON:003:1,2017-01-03T10:18:00Z,26.8015,-97.4706,1.282,1111122 
TCOON,ioos:station:TCOON:003:1,2017-01-03T11:18:00Z,26.8015,-97.4706,1.281,1111122 
TCOON,ioos:station:TCOON:003:1,2017-01-03T12:18:00Z,26.8015,-97.4706,1.278,1111122 
TCOON,ioos:station:TCOON:003:1,2017-01-03T13:18:00Z,26.8015,-97.4706,1.278,1111122 
TCOON,ioos:station:TCOON:003:1,2017-01-03T14:18:00Z,26.8015,-97.4706,1.274,1111122 
TCOON,ioos:station:TCOON:003:1,2017-01-03T15:18:00Z,26.8015,-97.4706,1.27,1111122 
TCOON,ioos:station:TCOON:003:1,2017-01-03T16:18:00Z,26.8015,-97.4706,1.265,1111122 
TCOON,ioos:station:TCOON:003:1,2017-01-03T17:18:00Z,26.8015,-97.4706,1.263,1111122 
TCOON,ioos:station:TCOON:003:1,2017-01-03T18:18:00Z,26.8015,-97.4706,1.259,1111122 
TCOON,ioos:station:TCOON:003:1,2017-01-03T19:18:00Z,26.8015,-97.4706,1.251,1111122 
TCOON,ioos:station:TCOON:003:1,2017-01-03T20:18:00Z,26.8015,-97.4706,1.233,1111122 
TCOON,ioos:station:TCOON:003:1,2017-01-03T21:18:00Z,26.8015,-97.4706,1.237,1111122 
TCOON,ioos:station:TCOON:003:1,2017-01-03T22:18:00Z,26.8015,-97.4706,1.242,1111122 
TCOON,ioos:station:TCOON:003:1,2017-01-03T23:18:00Z,26.8015,-97.4706,1.245,1111122 
TCOON,ioos:station:TCOON:003:1,2017-01-04T00:18:00Z,26.8015,-97.4706,1.25,1111122 
TCOON,ioos:station:TCOON:003:1,2017-01-04T01:18:00Z,26.8015,-97.4706,1.258,1111122 
TCOON,ioos:station:TCOON:003:1,2017-01-04T02:18:00Z,26.8015,-97.4706,1.275,1111122 
TCOON,ioos:station:TCOON:003:1,2017-01-04T03:18:00Z,26.8015,-97.4706,1.287,1111122 
TCOON,ioos:station:TCOON:003:1,2017-01-04T05:24:00Z,26.8015,-97.4706,1.27,1111122 
TCOON,ioos:station:TCOON:003:1,2017-01-04T06:18:00Z,26.8015,-97.4706,1.268,1111122 
TCOON,ioos:station:TCOON:003:1,2017-01-04T07:18:00Z,26.8015,-97.4706,1.262,1111122 
TCOON,ioos:station:TCOON:003:1,2017-01-04T08:18:00Z,26.8015,-97.4706,1.238,1111122 
TCOON,ioos:station:TCOON:003:1,2017-01-04T09:24:00Z,26.8015,-97.4706,1.205,1111122 
TCOON,ioos:station:TCOON:003:1,2017-01-04T10:18:00Z,26.8015,-97.4706,1.173,1111122 
TCOON,ioos:station:TCOON:003:1,2017-01-04T11:18:00Z,26.8015,-97.4706,1.134,1111122 
TCOON,ioos:station:TCOON:003:1,2017-01-04T12:18:00Z,26.8015,-97.4706,1.101,1111122 
TCOON,ioos:station:TCOON:003:1,2017-01-04T13:18:00Z,26.8015,-97.4706,1.098,1111122 
TCOON,ioos:station:TCOON:003:1,2017-01-04T14:18:00Z,26.8015,-97.4706,1.107,1111122 
TCOON,ioos:station:TCOON:003:1,2017-01-04T15:18:00Z,26.8015,-97.4706,1.11,1111122 
TCOON,ioos:station:TCOON:003:1,2017-01-04T16:18:00Z,26.8015,-97.4706,1.109,1111122 
TCOON,ioos:station:TCOON:003:1,2017-01-04T17:18:00Z,26.8015,-97.4706,1.123,1111122 
TCOON,ioos:station:TCOON:003:1,2017-01-04T18:24:00Z,26.8015,-97.4706,1.136,1111122 
TCOON,ioos:station:TCOON:003:1,2017-01-04T19:18:00Z,26.8015,-97.4706,1.128,1111122 
TCOON,ioos:station:TCOON:003:1,2017-01-04T20:18:00Z,26.8015,-97.4706,1.121,1111122 
TCOON,ioos:station:TCOON:003:1,2017-01-04T21:18:00Z,26.8015,-97.4706,1.121,1111122 
TCOON,ioos:station:TCOON:003:1,2017-01-04T22:18:00Z,26.8015,-97.4706,1.12,1111122 
TCOON,ioos:station:TCOON:003:1,2017-01-04T23:18:00Z,26.8015,-97.4706,1.137,1111122 
TCOON,ioos:station:TCOON:003:1,2017-01-05T00:18:00Z,26.8015,-97.4706,1.138,1111122 
TCOON,ioos:station:TCOON:003:1,2017-01-05T01:18:00Z,26.8015,-97.4706,1.14,1111122 
TCOON,ioos:station:TCOON:003:1,2017-01-05T02:18:00Z,26.8015,-97.4706,1.158,1111122 
TCOON,ioos:station:TCOON:003:1,2017-01-05T03:24:00Z,26.8015,-97.4706,1.174,1111122 
TCOON,ioos:station:TCOON:003:1,2017-01-05T04:18:00Z,26.8015,-97.4706,1.172,1111122 
TCOON,ioos:station:TCOON:003:1,2017-01-05T05:18:00Z,26.8015,-97.4706,1.165,1111122 
TCOON,ioos:station:TCOON:003:1,2017-01-05T06:18:00Z,26.8015,-97.4706,1.166,1111122 
TCOON,ioos:station:TCOON:003:1,2017-01-05T07:18:00Z,26.8015,-97.4706,1.177,1111122 
TCOON,ioos:station:TCOON:003:1,2017-01-05T08:18:00Z,26.8015,-97.4706,1.195,1111122 
TCOON,ioos:station:TCOON:003:1,2017-01-05T09:18:00Z,26.8015,-97.4706,1.201,1111122 
TCOON,ioos:station:TCOON:003:1,2017-01-05T10:18:00Z,26.8015,-97.4706,1.184,1111122 
TCOON,ioos:station:TCOON:003:1,2017-01-05T11:18:00Z,26.8015,-97.4706,1.16,1111122 
TCOON,ioos:station:TCOON:003:1,2017-01-05T12:24:00Z,26.8015,-97.4706,1.155,1111122 
TCOON,ioos:station:TCOON:003:1,2017-01-05T13:18:00Z,26.8015,-97.4706,1.179,1111122 
TCOON,ioos:station:TCOON:003:1,2017-01-05T14:18:00Z,26.8015,-97.4706,1.192,1111122 
TCOON,ioos:station:TCOON:003:1,2017-01-05T15:18:00Z,26.8015,-97.4706,1.183,1111122 
TCOON,ioos:station:TCOON:003:1,2017-01-05T16:18:00Z,26.8015,-97.4706,1.181,1111122 
TCOON,ioos:station:TCOON:003:1,2017-01-05T17:18:00Z,26.8015,-97.4706,1.177,1111122 
TCOON,ioos:station:TCOON:003:1,2017-01-05T18:18:00Z,26.8015,-97.4706,1.187,1111122 
TCOON,ioos:station:TCOON:003:1,2017-01-05T19:18:00Z,26.8015,-97.4706,1.199,1111122 
TCOON,ioos:station:TCOON:003:1,2017-01-05T20:24:00Z,26.8015,-97.4706,1.201,1111122 
TCOON,ioos:station:TCOON:003:1,2017-01-05T21:18:00Z,26.8015,-97.4706,1.213,1111122 
TCOON,ioos:station:TCOON:003:1,2017-01-05T22:18:00Z,26.8015,-97.4706,1.217,1111122 
TCOON,ioos:station:TCOON:003:1,2017-01-05T23:18:00Z,26.8015,-97.4706,1.211,1111122 
TCOON,ioos:station:TCOON:003:1,2017-01-06T00:18:00Z,26.8015,-97.4706,1.196,1111122 
TCOON,ioos:station:TCOON:003:1,2017-01-06T01:18:00Z,26.8015,-97.4706,1.189,1111122 
TCOON,ioos:station:TCOON:003:1,2017-01-06T02:18:00Z,26.8015,-97.4706,1.196,1111122 
TCOON,ioos:station:TCOON:003:1,2017-01-06T03:18:00Z,26.8015,-97.4706,1.207,1111122 
TCOON,ioos:station:TCOON:003:1,2017-01-06T04:18:00Z,26.8015,-97.4706,1.22,1111122 
TCOON,ioos:station:TCOON:003:1,2017-01-06T05:24:00Z,26.8015,-97.4706,1.227,1111122 
TCOON,ioos:station:TCOON:003:1,2017-01-06T06:18:00Z,26.8015,-97.4706,1.225,1111122 
TCOON,ioos:station:TCOON:003:1,2017-01-06T07:18:00Z,26.8015,-97.4706,1.17,1111122 
TCOON,ioos:station:TCOON:003:1,2017-01-06T08:18:00Z,26.8015,-97.4706,1.105,1111122 
TCOON,ioos:station:TCOON:003:1,2017-01-06T09:18:00Z,26.8015,-97.4706,1.054,1111122 
TCOON,ioos:station:TCOON:003:1,2017-01-06T10:24:00Z,26.8015,-97.4706,1.022,1111122 
TCOON,ioos:station:TCOON:003:1,2017-01-06T11:18:00Z,26.8015,-97.4706,0.997,1111122 
TCOON,ioos:station:TCOON:003:1,2017-01-06T12:18:00Z,26.8015,-97.4706,0.971,1111122 
TCOON,ioos:station:TCOON:003:1,2017-01-06T13:18:00Z,26.8015,-97.4706,0.953,1111122 
TCOON,ioos:station:TCOON:003:1,2017-01-06T14:24:00Z,26.8015,-97.4706,0.932,1111122 
TCOON,ioos:station:TCOON:003:1,2017-01-06T15:18:00Z,26.8015,-97.4706,0.894,1111122 
TCOON,ioos:station:TCOON:003:1,2017-01-06T16:18:00Z,26.8015,-97.4706,0.864,1111122 
TCOON,ioos:station:TCOON:003:1,2017-01-06T17:18:00Z,26.8015,-97.4706,0.847,1111122 
TCOON,ioos:station:TCOON:003:1,2017-01-06T18:18:00Z,26.8015,-97.4706,0.854,1111122 
TCOON,ioos:station:TCOON:003:1,2017-01-06T19:24:00Z,26.8015,-97.4706,0.866,1111122 
TCOON,ioos:station:TCOON:003:1,2017-01-06T20:18:00Z,26.8015,-97.4706,0.855,1111122 
TCOON,ioos:station:TCOON:003:1,2017-01-06T21:18:00Z,26.8015,-97.4706,0.858,1111122 
TCOON,ioos:station:TCOON:003:1,2017-01-06T22:18:00Z,26.8015,-97.4706,0.86,1111122 
TCOON,ioos:station:TCOON:003:1,2017-01-07T00:18:00Z,26.8015,-97.4706,0.849,1111122 
TCOON,ioos:station:TCOON:003:1,2017-01-07T01:18:00Z,26.8015,-97.4706,0.827,1111122 
TCOON,ioos:station:TCOON:003:1,2017-01-07T02:18:00Z,26.8015,-97.4706,0.795,1111122 
TCOON,ioos:station:TCOON:003:1,2017-01-07T03:18:00Z,26.8015,-97.4706,0.782,1111122 
TCOON,ioos:station:TCOON:003:1,2017-01-07T04:18:00Z,26.8015,-97.4706,0.791,1111122 
TCOON,ioos:station:TCOON:003:1,2017-01-07T05:18:00Z,26.8015,-97.4706,0.788,1111122 
TCOON,ioos:station:TCOON:003:1,2017-01-07T06:18:00Z,26.8015,-97.4706,0.779,1111122 
TCOON,ioos:station:TCOON:003:1,2017-01-07T07:18:00Z,26.8015,-97.4706,0.774,1111122 
TCOON,ioos:station:TCOON:003:1,2017-01-07T08:18:00Z,26.8015,-97.4706,0.779,1111122 
TCOON,ioos:station:TCOON:003:1,2017-01-07T09:24:00Z,26.8015,-97.4706,0.781,1111122 
TCOON,ioos:station:TCOON:003:1,2017-01-07T10:18:00Z,26.8015,-97.4706,0.795,1111122 
TCOON,ioos:station:TCOON:003:1,2017-01-07T11:18:00Z,26.8015,-97.4706,0.807,1111122 
TCOON,ioos:station:TCOON:003:1,2017-01-07T12:18:00Z,26.8015,-97.4706,0.826,1111122 
TCOON,ioos:station:TCOON:003:1,2017-01-07T13:18:00Z,26.8015,-97.4706,0.825,1111122 
TCOON,ioos:station:TCOON:003:1,2017-01-07T14:18:00Z,26.8015,-97.4706,0.806,1111122 
TCOON,ioos:station:TCOON:003:1,2017-01-07T15:18:00Z,26.8015,-97.4706,0.794,1111122 
TCOON,ioos:station:TCOON:003:1,2017-01-07T16:18:00Z,26.8015,-97.4706,0.784,1111122 
TCOON,ioos:station:TCOON:003:1,2017-01-07T17:18:00Z,26.8015,-97.4706,0.798,1111122 
TCOON,ioos:station:TCOON:003:1,2017-01-07T18:18:00Z,26.8015,-97.4706,0.833,1111122 
TCOON,ioos:station:TCOON:003:1,2017-01-07T19:18:00Z,26.8015,-97.4706,0.861,1111122 
TCOON,ioos:station:TCOON:003:1,2017-01-07T20:18:00Z,26.8015,-97.4706,0.879,1111122 
TCOON,ioos:station:TCOON:003:1,2017-01-07T21:18:00Z,26.8015,-97.4706,0.887,1111122 
TCOON,ioos:station:TCOON:003:1,2017-01-07T22:18:00Z,26.8015,-97.4706,0.895,1111122 
TCOON,ioos:station:TCOON:003:1,2017-01-07T23:18:00Z,26.8015,-97.4706,0.9,1111122 
TCOON,ioos:station:TCOON:003:1,2017-01-08T00:18:00Z,26.8015,-97.4706,0.908,1111122 
TCOON,ioos:station:TCOON:003:1,2017-01-08T01:18:00Z,26.8015,-97.4706,0.926,1111122 
TCOON,ioos:station:TCOON:003:1,2017-01-08T02:18:00Z,26.8015,-97.4706,0.949,1111122 
TCOON,ioos:station:TCOON:003:1,2017-01-08T03:18:00Z,26.8015,-97.4706,0.969,1111122 
TCOON,ioos:station:TCOON:003:1,2017-01-08T04:18:00Z,26.8015,-97.4706,0.976,1111122 
TCOON,ioos:station:TCOON:003:1,2017-01-08T05:18:00Z,26.8015,-97.4706,0.98,1111122 
TCOON,ioos:station:TCOON:003:1,2017-01-08T06:18:00Z,26.8015,-97.4706,0.986,1111122 
TCOON,ioos:station:TCOON:003:1,2017-01-08T07:18:00Z,26.8015,-97.4706,0.985,1111122 
TCOON,ioos:station:TCOON:003:1,2017-01-08T08:18:00Z,26.8015,-97.4706,0.975,1111122 
TCOON,ioos:station:TCOON:003:1,2017-01-08T09:18:00Z,26.8015,-97.4706,0.968,1111122 
TCOON,ioos:station:TCOON:003:1,2017-01-08T10:18:00Z,26.8015,-97.4706,0.954,1111122 
TCOON,ioos:station:TCOON:003:1,2017-01-08T11:18:00Z,26.8015,-97.4706,0.933,1111122 
TCOON,ioos:station:TCOON:003:1,2017-01-08T13:54:00Z,26.8015,-97.4706,0.912,1111122 
TCOON,ioos:station:TCOON:003:1,2017-01-08T14:18:00Z,26.8015,-97.4706,0.911,1111122 
TCOON,ioos:station:TCOON:003:1,2017-01-08T15:18:00Z,26.8015,-97.4706,0.907,1111122 
TCOON,ioos:station:TCOON:003:1,2017-01-08T16:18:00Z,26.8015,-97.4706,0.913,1111122 
TCOON,ioos:station:TCOON:003:1,2017-01-08T17:18:00Z,26.8015,-97.4706,0.944,1111122 
TCOON,ioos:station:TCOON:003:1,2017-01-08T18:18:00Z,26.8015,-97.4706,0.992,1111122 
TCOON,ioos:station:TCOON:003:1,2017-01-08T19:18:00Z,26.8015,-97.4706,1.026,1111122 
TCOON,ioos:station:TCOON:003:1,2017-01-08T20:18:00Z,26.8015,-97.4706,1.035,1111122 
TCOON,ioos:station:TCOON:003:1,2017-01-08T21:18:00Z,26.8015,-97.4706,1.047,1111122 
TCOON,ioos:station:TCOON:003:1,2017-01-08T22:18:00Z,26.8015,-97.4706,1.056,1111122 
TCOON,ioos:station:TCOON:003:1,2017-01-08T23:18:00Z,26.8015,-97.4706,1.066,1111122 
TCOON,ioos:station:TCOON:003:1,2017-01-09T00:18:00Z,26.8015,-97.4706,1.081,1111122 
TCOON,ioos:station:TCOON:003:1,2017-01-09T01:18:00Z,26.8015,-97.4706,1.068,1111122 
TCOON,ioos:station:TCOON:003:1,2017-01-09T02:18:00Z,26.8015,-97.4706,1.069,1111122 
TCOON,ioos:station:TCOON:003:1,2017-01-09T03:18:00Z,26.8015,-97.4706,1.071,1111122 
TCOON,ioos:station:TCOON:003:1,2017-01-09T04:18:00Z,26.8015,-97.4706,1.079,1111122 
TCOON,ioos:station:TCOON:003:1,2017-01-09T05:18:00Z,26.8015,-97.4706,1.083,1111122 
TCOON,ioos:station:TCOON:003:1,2017-01-09T06:18:00Z,26.8015,-97.4706,1.086,1111122 
TCOON,ioos:station:TCOON:003:1,2017-01-09T07:18:00Z,26.8015,-97.4706,1.094,1111122 
TCOON,ioos:station:TCOON:003:1,2017-01-09T08:18:00Z,26.8015,-97.4706,1.097,1111122 
TCOON,ioos:station:TCOON:003:1,2017-01-09T09:18:00Z,26.8015,-97.4706,1.101,1111122 
TCOON,ioos:station:TCOON:003:1,2017-01-09T10:18:00Z,26.8015,-97.4706,1.106,1111122 
TCOON,ioos:station:TCOON:003:1,2017-01-09T11:18:00Z,26.8015,-97.4706,1.11,1111122 
TCOON,ioos:station:TCOON:003:1,2017-01-09T12:18:00Z,26.8015,-97.4706,1.109,1111122 
TCOON,ioos:station:TCOON:003:1,2017-01-09T13:18:00Z,26.8015,-97.4706,1.106,1111122 
TCOON,ioos:station:TCOON:003:1,2017-01-09T14:18:00Z,26.8015,-97.4706,1.106,1111122 
TCOON,ioos:station:TCOON:003:1,2017-01-09T15:18:00Z,26.8015,-97.4706,1.109,1111122 
TCOON,ioos:station:TCOON:003:1,2017-01-09T16:18:00Z,26.8015,-97.4706,1.108,1111122 
TCOON,ioos:station:TCOON:003:1,2017-01-09T17:18:00Z,26.8015,-97.4706,1.123,1111122 
TCOON,ioos:station:TCOON:003:1,2017-01-09T18:18:00Z,26.8015,-97.4706,1.143,1111122 
TCOON,ioos:station:TCOON:003:1,2017-01-09T19:18:00Z,26.8015,-97.4706,1.158,1111122 
TCOON,ioos:station:TCOON:003:1,2017-01-09T20:18:00Z,26.8015,-97.4706,1.181,1111122 
TCOON,ioos:station:TCOON:003:1,2017-01-09T21:18:00Z,26.8015,-97.4706,1.224,1111122 
TCOON,ioos:station:TCOON:003:1,2017-01-09T22:18:00Z,26.8015,-97.4706,1.247,1111122 
TCOON,ioos:station:TCOON:003:1,2017-01-09T23:18:00Z,26.8015,-97.4706,1.249,1111122 
TCOON,ioos:station:TCOON:003:1,2017-01-10T00:18:00Z,26.8015,-97.4706,1.233,1111122 
TCOON,ioos:station:TCOON:003:1,2017-01-10T01:18:00Z,26.8015,-97.4706,1.216,1111122 
TCOON,ioos:station:TCOON:003:1,2017-01-10T02:18:00Z,26.8015,-97.4706,1.196,1111122 
TCOON,ioos:station:TCOON:003:1,2017-01-10T03:18:00Z,26.8015,-97.4706,1.196,1111122 
TCOON,ioos:station:TCOON:003:1,2017-01-10T04:24:00Z,26.8015,-97.4706,1.201,1111122 
TCOON,ioos:station:TCOON:003:1,2017-01-10T05:18:00Z,26.8015,-97.4706,1.211,1111122 
TCOON,ioos:station:TCOON:003:1,2017-01-10T06:18:00Z,26.8015,-97.4706,1.234,1111122 
TCOON,ioos:station:TCOON:003:1,2017-01-10T07:18:00Z,26.8015,-97.4706,1.245,1111122 
TCOON,ioos:station:TCOON:003:1,2017-01-10T08:18:00Z,26.8015,-97.4706,1.242,1111122 
TCOON,ioos:station:TCOON:003:1,2017-01-10T09:18:00Z,26.8015,-97.4706,1.221,1111122 
TCOON,ioos:station:TCOON:003:1,2017-01-10T10:18:00Z,26.8015,-97.4706,1.2,1111122 
TCOON,ioos:station:TCOON:003:1,2017-01-10T11:18:00Z,26.8015,-97.4706,1.193,1111122 
TCOON,ioos:station:TCOON:003:1,2017-01-10T12:18:00Z,26.8015,-97.4706,1.19,1111122 
TCOON,ioos:station:TCOON:003:1,2017-01-10T13:18:00Z,26.8015,-97.4706,1.209,1111122 
TCOON,ioos:station:TCOON:003:1,2017-01-10T14:18:00Z,26.8015,-97.4706,1.228,1111122 
TCOON,ioos:station:TCOON:003:1,2017-01-10T15:18:00Z,26.8015,-97.4706,1.242,1111122 
TCOON,ioos:station:TCOON:003:1,2017-01-10T16:18:00Z,26.8015,-97.4706,1.241,1111122 
TCOON,ioos:station:TCOON:003:1,2017-01-10T17:18:00Z,26.8015,-97.4706,1.25,1111122 
TCOON,ioos:station:TCOON:003:1,2017-01-10T18:18:00Z,26.8015,-97.4706,1.305,1111122 
TCOON,ioos:station:TCOON:003:1,2017-01-10T19:18:00Z,26.8015,-97.4706,1.322,1111122 
TCOON,ioos:station:TCOON:003:1,2017-01-10T20:18:00Z,26.8015,-97.4706,1.321,1111122 
TCOON,ioos:station:TCOON:003:1,2017-01-10T21:18:00Z,26.8015,-97.4706,1.328,1111122 
TCOON,ioos:station:TCOON:003:1,2017-01-10T22:18:00Z,26.8015,-97.4706,1.341,1111122 
TCOON,ioos:station:TCOON:003:1,2017-01-10T23:18:00Z,26.8015,-97.4706,1.344,1111122 
TCOON,ioos:station:TCOON:003:1,2017-01-11T00:18:00Z,26.8015,-97.4706,1.345,1111122 
TCOON,ioos:station:TCOON:003:1,2017-01-11T01:18:00Z,26.8015,-97.4706,1.335,1111122 
TCOON,ioos:station:TCOON:003:1,2017-01-11T02:18:00Z,26.8015,-97.4706,1.322,1111122 
TCOON,ioos:station:TCOON:003:1,2017-01-11T03:18:00Z,26.8015,-97.4706,1.309,1111122 
TCOON,ioos:station:TCOON:003:1,2017-01-11T04:18:00Z,26.8015,-97.4706,1.294,1111122 
TCOON,ioos:station:TCOON:003:1,2017-01-11T05:18:00Z,26.8015,-97.4706,1.284,1111122 
TCOON,ioos:station:TCOON:003:1,2017-01-11T06:18:00Z,26.8015,-97.4706,1.284,1111122 
TCOON,ioos:station:TCOON:003:1,2017-01-11T07:18:00Z,26.8015,-97.4706,1.288,1111122 
TCOON,ioos:station:TCOON:003:1,2017-01-11T08:18:00Z,26.8015,-97.4706,1.288,1111122 
TCOON,ioos:station:TCOON:003:1,2017-01-11T09:18:00Z,26.8015,-97.4706,1.292,1111122 
TCOON,ioos:station:TCOON:003:1,2017-01-11T10:18:00Z,26.8015,-97.4706,1.294,1111122 
TCOON,ioos:station:TCOON:003:1,2017-01-11T11:18:00Z,26.8015,-97.4706,1.301,1111122 
TCOON,ioos:station:TCOON:003:1,2017-01-11T12:18:00Z,26.8015,-97.4706,1.296,1111122 
TCOON,ioos:station:TCOON:003:1,2017-01-11T13:18:00Z,26.8015,-97.4706,1.277,1111122 
TCOON,ioos:station:TCOON:003:1,2017-01-11T14:18:00Z,26.8015,-97.4706,1.265,1111122 
TCOON,ioos:station:TCOON:003:1,2017-01-11T15:18:00Z,26.8015,-97.4706,1.255,1111122 
TCOON,ioos:station:TCOON:003:1,2017-01-11T16:18:00Z,26.8015,-97.4706,1.258,1111122 
TCOON,ioos:station:TCOON:003:1,2017-01-11T17:18:00Z,26.8015,-97.4706,1.27,1111122 
TCOON,ioos:station:TCOON:003:1,2017-01-11T18:18:00Z,26.8015,-97.4706,1.293,1111122 
TCOON,ioos:station:TCOON:003:1,2017-01-11T19:18:00Z,26.8015,-97.4706,1.329,1111122 
TCOON,ioos:station:TCOON:003:1,2017-01-11T20:18:00Z,26.8015,-97.4706,1.37,1111122 
TCOON,ioos:station:TCOON:003:1,2017-01-11T21:18:00Z,26.8015,-97.4706,1.398,1111122 
TCOON,ioos:station:TCOON:003:1,2017-01-11T22:18:00Z,26.8015,-97.4706,1.401,1111122 
TCOON,ioos:station:TCOON:003:1,2017-01-11T23:18:00Z,26.8015,-97.4706,1.396,1111122 
TCOON,ioos:station:TCOON:003:1,2017-01-12T00:18:00Z,26.8015,-97.4706,1.387,1111122 
TCOON,ioos:station:TCOON:003:1,2017-01-12T01:18:00Z,26.8015,-97.4706,1.368,1111122 
TCOON,ioos:station:TCOON:003:1,2017-01-12T02:18:00Z,26.8015,-97.4706,1.339,1111122 
TCOON,ioos:station:TCOON:003:1,2017-01-12T03:18:00Z,26.8015,-97.4706,1.324,1111122 
TCOON,ioos:station:TCOON:003:1,2017-01-12T04:18:00Z,26.8015,-97.4706,1.321,1111122 
TCOON,ioos:station:TCOON:003:1,2017-01-12T05:18:00Z,26.8015,-97.4706,1.33,1111122 
TCOON,ioos:station:TCOON:003:1,2017-01-12T06:18:00Z,26.8015,-97.4706,1.357,1111122 
TCOON,ioos:station:TCOON:003:1,2017-01-12T07:18:00Z,26.8015,-97.4706,1.322,1111122 
TCOON,ioos:station:TCOON:003:1,2017-01-12T08:18:00Z,26.8015,-97.4706,1.334,1111122 
TCOON,ioos:station:TCOON:003:1,2017-01-12T09:18:00Z,26.8015,-97.4706,1.326,1111122 
TCOON,ioos:station:TCOON:003:1,2017-01-12T10:18:00Z,26.8015,-97.4706,1.315,1111122 
TCOON,ioos:station:TCOON:003:1,2017-01-12T11:18:00Z,26.8015,-97.4706,1.32,1111122 
TCOON,ioos:station:TCOON:003:1,2017-01-12T12:18:00Z,26.8015,-97.4706,1.32,1111122 
TCOON,ioos:station:TCOON:003:1,2017-01-12T13:18:00Z,26.8015,-97.4706,1.322,1111122 
TCOON,ioos:station:TCOON:003:1,2017-01-12T14:18:00Z,26.8015,-97.4706,1.313,1111122 
TCOON,ioos:station:TCOON:003:1,2017-01-12T15:18:00Z,26.8015,-97.4706,1.302,1111122 
TCOON,ioos:station:TCOON:003:1,2017-01-12T16:18:00Z,26.8015,-97.4706,1.3,1111122 
TCOON,ioos:station:TCOON:003:1,2017-01-12T17:18:00Z,26.8015,-97.4706,1.301,1111122 
TCOON,ioos:station:TCOON:003:1,2017-01-12T18:18:00Z,26.8015,-97.4706,1.329,1111122 
TCOON,ioos:station:TCOON:003:1,2017-01-12T19:18:00Z,26.8015,-97.4706,1.34,1111122 
TCOON,ioos:station:TCOON:003:1,2017-01-12T20:18:00Z,26.8015,-97.4706,1.348,1111122 
TCOON,ioos:station:TCOON:003:1,2017-01-12T21:18:00Z,26.8015,-97.4706,1.361,1111122 
TCOON,ioos:station:TCOON:003:1,2017-01-12T22:18:00Z,26.8015,-97.4706,1.356,1111122 
TCOON,ioos:station:TCOON:003:1,2017-01-12T23:18:00Z,26.8015,-97.4706,1.346,1111122 
TCOON,ioos:station:TCOON:003:1,2017-01-13T00:18:00Z,26.8015,-97.4706,1.351,1111122 